| time (UTC) | temp C | wind direction | speed KPH | gust KPH | rain 1hr cm | rain 24hr cm | rain mn cm | humidity % | barometer mb |
| 20260506014013 | 10 | 277 | 0.0 | 0.0 | 0.00 | 0.33 | 0.33 | 84 | 1007.9 |
| 20260506013017 | 11 | 215 | 0.0 | 1.6 | 0.00 | 0.33 | 0.33 | 82 | 1007.9 |
| 20260506012516 | 11 | 272 | 0.0 | 0.0 | 0.00 | 0.33 | 0.33 | 81 | 1008.0 |
| 20260506012016 | 11 | 292 | 0.0 | 1.6 | 0.00 | 0.33 | 0.33 | 78 | 1007.8 |
| 20260506011515 | 12 | 287 | 0.0 | 0.0 | 0.00 | 0.30 | 0.30 | 76 | 1007.7 |
| 20260506011015 | 12 | 288 | 0.0 | 0.0 | 0.00 | 0.30 | 0.30 | 74 | 1007.8 |
| 20260506010514 | 12 | 275 | 0.0 | 1.6 | 0.00 | 0.30 | 0.30 | 73 | 1007.4 |
| 20260506005516 | 12 | 240 | 0.0 | 1.6 | 0.00 | 0.30 | 0.30 | 70 | 1007.4 |
| 20260506005016 | 12 | 290 | 0.0 | 1.6 | 0.00 | 0.30 | 0.30 | 71 | 1007.3 |
| 20260506004515 | 13 | 325 | 3.2 | 17.7 | 0.00 | 0.30 | 0.30 | 72 | 1007.2 |
| 20260506004015 | 13 | 292 | 0.0 | 0.0 | 0.00 | 0.30 | 0.30 | 71 | 1007.0 |
| 20260506003514 | 13 | 298 | 6.4 | 14.5 | 0.00 | 0.30 | 0.30 | 71 | 1006.9 |
| 20260506003013 | 13 | 253 | 6.4 | 14.5 | 0.00 | 0.30 | 0.30 | 70 | 1006.6 |
| 20260506002512 | 13 | 284 | 0.0 | 0.0 | 0.00 | 0.30 | 0.30 | 74 | 1006.5 |
| 20260506002012 | 13 | 252 | 4.8 | 17.7 | 0.00 | 0.30 | 0.30 | 73 | 1006.5 |
| 20260506001511 | 14 | 257 | 3.2 | 6.4 | 0.00 | 0.30 | 0.30 | 76 | 1006.3 |
| 20260506001017 | 14 | 250 | 0.0 | 0.0 | 0.00 | 0.30 | 0.30 | 76 | 1005.9 |
| 20260506000516 | 14 | 244 | 0.0 | 3.2 | 0.00 | 0.30 | 0.30 | 75 | 1005.7 |
| 20260506000014 | 14 | 231 | 6.4 | 14.5 | 0.00 | 0.30 | 0.30 | 76 | 1005.5 |
| 20260505235514 | 15 | 250 | 0.0 | 0.0 | 0.00 | 0.30 | 0.30 | 77 | 1005.3 |
| 20260505234512 | 15 | 261 | 0.0 | 0.0 | 0.00 | 0.30 | 0.30 | 76 | 1005.1 |
| 20260505234017 | 15 | 248 | 1.6 | 8.0 | 0.00 | 0.30 | 0.30 | 76 | 1005.0 |
| 20260505233015 | 15 | 232 | 0.0 | 1.6 | 0.00 | 0.30 | 0.30 | 75 | 1005.0 |
| 20260505232514 | 15 | 273 | 0.0 | 3.2 | 0.00 | 0.30 | 0.30 | 75 | 1004.9 |
| 20260505232014 | 15 | 196 | 0.0 | 0.0 | 0.00 | 0.30 | 0.30 | 74 | 1004.8 |
| 20260505231513 | 16 | 236 | 0.0 | 1.6 | 0.00 | 0.30 | 0.30 | 73 | 1004.7 |
| 20260505231013 | 16 | 239 | 4.8 | 14.5 | 0.00 | 0.30 | 0.30 | 72 | 1004.6 |
| 20260505230015 | 16 | 274 | 0.0 | 0.0 | 0.00 | 0.30 | 0.30 | 72 | 1004.6 |
| 20260505225514 | 16 | 242 | 0.0 | 4.8 | 0.00 | 0.30 | 0.30 | 70 | 1004.4 |
| 20260505225014 | 16 | 238 | 1.6 | 12.9 | 0.00 | 0.30 | 0.30 | 69 | 1004.5 |
| 20260505224513 | 16 | 223 | 4.8 | 8.0 | 0.00 | 0.30 | 0.30 | 70 | 1004.3 |
| 20260505224012 | 16 | 286 | 0.0 | 0.0 | 0.00 | 0.30 | 0.30 | 69 | 1004.2 |
| 20260505223512 | 16 | 263 | 8.0 | 20.9 | 0.00 | 0.30 | 0.30 | 68 | 1004.1 |
| 20260505223017 | 16 | 284 | 14.5 | 22.5 | 0.00 | 0.30 | 0.30 | 68 | 1004.1 |
| 20260505222517 | 16 | 248 | 9.7 | 22.5 | 0.00 | 0.30 | 0.30 | 69 | 1003.9 |
| 20260505222016 | 16 | 256 | 12.9 | 24.1 | 0.00 | 0.30 | 0.30 | 68 | 1003.9 |
| 20260505221516 | 16 | 241 | 11.3 | 19.3 | 0.00 | 0.30 | 0.30 | 70 | 1003.7 |
| 20260505221015 | 16 | 260 | 3.2 | 14.5 | 0.00 | 0.30 | 0.30 | 72 | 1003.7 |
| 20260505220515 | 17 | 238 | 0.0 | 1.6 | 0.00 | 0.30 | 0.30 | 76 | 1003.7 |
| 20260505220013 | 17 | 238 | 0.0 | 6.4 | 0.00 | 0.30 | 0.30 | 74 | 1003.7 |
| 20260505215512 | 17 | 236 | 0.0 | 0.0 | 0.00 | 0.30 | 0.30 | 75 | 1003.8 |
| 20260505215012 | 17 | 251 | 0.0 | 0.0 | 0.00 | 0.30 | 0.30 | 74 | 1003.7 |
| 20260505214517 | 17 | 229 | 3.2 | 17.7 | 0.00 | 0.30 | 0.30 | 73 | 1003.6 |
| 20260505214017 | 17 | 241 | 0.0 | 1.6 | 0.00 | 0.30 | 0.30 | 75 | 1003.7 |
| 20260505213516 | 17 | 195 | 4.8 | 9.7 | 0.00 | 0.30 | 0.30 | 74 | 1003.5 |
| 20260505213015 | 17 | 204 | 6.4 | 9.7 | 0.00 | 0.30 | 0.30 | 76 | 1003.4 |
| 20260505212515 | 17 | 223 | 1.6 | 16.1 | 0.00 | 0.30 | 0.30 | 79 | 1003.4 |
| 20260505212014 | 17 | 169 | 3.2 | 9.7 | 0.00 | 0.30 | 0.30 | 79 | 1003.4 |
| 20260505211514 | 16 | 224 | 0.0 | 1.6 | 0.00 | 0.30 | 0.30 | 81 | 1003.3 |
| 20260505210512 | 16 | 214 | 0.0 | 0.0 | 0.00 | 0.30 | 0.30 | 82 | 1003.4 |
| 20260505210016 | 16 | 243 | 0.0 | 0.0 | 0.00 | 0.30 | 0.30 | 81 | 1003.5 |
| 20260505205014 | 16 | 227 | 0.0 | 0.0 | 0.00 | 0.30 | 0.30 | 83 | 1003.3 |
| 20260505204012 | 16 | 234 | 0.0 | 0.0 | 0.00 | 0.30 | 0.30 | 85 | 1003.1 |
| 20260505203511 | 16 | 226 | 6.4 | 11.3 | 0.00 | 0.30 | 0.30 | 85 | 1003.1 |
| 20260505203017 | 16 | 215 | 0.0 | 0.0 | 0.00 | 0.30 | 0.30 | 90 | 1003.1 |
| 20260505202516 | 15 | 170 | 0.0 | 0.0 | 0.00 | 0.30 | 0.30 | 91 | 1003.2 |
| 20260505201513 | 15 | 215 | 0.0 | 9.7 | 0.00 | 0.30 | 0.30 | 89 | 1003.5 |
| 20260505201013 | 15 | 183 | 1.6 | 6.4 | 0.00 | 0.30 | 0.30 | 90 | 1003.6 |
| 20260505200512 | 15 | 159 | 0.0 | 0.0 | 0.00 | 0.30 | 0.30 | 90 | 1003.5 |
| 20260505200017 | 15 | 234 | 0.0 | 0.0 | 0.00 | 0.30 | 0.30 | 91 | 1003.6 |
| 20260505195516 | 15 | 205 | 0.0 | 1.6 | 0.00 | 0.30 | 0.30 | 93 | 1003.6 |
| 20260505195016 | 15 | 240 | 0.0 | 3.2 | 0.00 | 0.30 | 0.30 | 94 | 1003.6 |
| 20260505194013 | 13 | 210 | 0.0 | 0.0 | 0.00 | 0.30 | 0.30 | 94 | 1003.6 |
| 20260505193513 | 13 | 178 | 0.0 | 0.0 | 0.00 | 0.30 | 0.30 | 95 | 1003.5 |
| 20260505193012 | 13 | 213 | 0.0 | 0.0 | 0.00 | 0.30 | 0.30 | 94 | 1003.5 |
| 20260505192512 | 13 | 189 | 0.0 | 0.0 | 0.00 | 0.30 | 0.30 | 93 | 1003.5 |
| 20260505192011 | 13 | 215 | 0.0 | 0.0 | 0.00 | 0.30 | 0.30 | 93 | 1003.6 |
| 20260505191517 | 13 | 202 | 1.6 | 9.7 | 0.00 | 0.28 | 0.28 | 92 | 1003.6 |
| 20260505191016 | 13 | 221 | 0.0 | 0.0 | 0.00 | 0.28 | 0.28 | 92 | 1003.5 |
| 20260505190515 | 13 | 203 | 0.0 | 1.6 | 0.00 | 0.28 | 0.28 | 91 | 1003.4 |
| 20260505190033 | 13 | 236 | 0.0 | 8.0 | 0.00 | 0.28 | 0.28 | 90 | 1003.6 |
| 20260505185012 | 13 | 233 | 3.2 | 25.7 | 0.00 | 0.25 | 0.25 | 90 | 1003.3 |
| 20260505184517 | 13 | 240 | 0.0 | 0.0 | 0.00 | 0.20 | 0.20 | 88 | 1003.4 |
| 20260505184017 | 14 | 257 | 0.0 | 1.6 | 0.00 | 0.10 | 0.10 | 85 | 1003.4 |
| 20260505183516 | 15 | 259 | 14.5 | 24.1 | 0.00 | 0.05 | 0.05 | 79 | 1003.2 |
| 20260505183016 | 16 | 281 | 19.3 | 30.6 | 0.00 | 0.05 | 0.05 | 74 | 1003.0 |
| 20260505182014 | 19 | 269 | 1.6 | 14.5 | 0.00 | 0.05 | 0.05 | 65 | 1002.6 |
| 20260505181513 | 19 | 223 | 3.2 | 9.7 | 0.00 | 0.05 | 0.05 | 64 | 1002.1 |
| 20260505181013 | 19 | 181 | 4.8 | 6.4 | 0.00 | 0.05 | 0.05 | 66 | 1002.1 |
| 20260505180512 | 18 | 272 | 4.8 | 9.7 | 0.00 | 0.05 | 0.05 | 66 | 1002.1 |
| 20260505180012 | 18 | 194 | 4.8 | 11.3 | 0.00 | 0.05 | 0.05 | 66 | 1002.1 |
| 20260505175516 | 18 | 256 | 1.6 | 11.3 | 0.00 | 0.05 | 0.05 | 66 | 1002.0 |
| 20260505175015 | 18 | 230 | 0.0 | 0.0 | 0.00 | 0.05 | 0.05 | 67 | 1002.0 |
| 20260505174013 | 18 | 223 | 4.8 | 12.9 | 0.00 | 0.05 | 0.05 | 67 | 1002.1 |
| 20260505173011 | 18 | 192 | 0.0 | 9.7 | 0.00 | 0.05 | 0.05 | 68 | 1002.1 |
| 20260505172517 | 18 | 235 | 0.0 | 1.6 | 0.00 | 0.05 | 0.05 | 69 | 1002.0 |
| 20260505172016 | 17 | 0 | 0.0 | 6.4 | 0.00 | 0.05 | 0.05 | 68 | 1002.0 |
| 20260505171516 | 17 | 254 | 3.2 | 25.7 | 0.00 | 0.05 | 0.05 | 69 | 1002.0 |
| 20260505170514 | 17 | 213 | 0.0 | 0.0 | 0.00 | 0.05 | 0.05 | 74 | 1002.0 |
| 20260505170013 | 17 | 239 | 0.0 | 0.0 | 0.00 | 0.05 | 0.05 | 75 | 1002.0 |
| 20260505165512 | 17 | 280 | 9.7 | 20.9 | 0.00 | 0.05 | 0.05 | 73 | 1002.1 |
| 20260505165017 | 17 | 236 | 6.4 | 16.1 | 0.00 | 0.05 | 0.05 | 73 | 1002.1 |
| 20260505164517 | 18 | 238 | 1.6 | 8.0 | 0.00 | 0.03 | 0.03 | 69 | 1002.1 |
| 20260505164016 | 18 | 269 | 0.0 | 0.0 | 0.00 | 0.03 | 0.03 | 68 | 1002.1 |
| 20260505163515 | 18 | 221 | 0.0 | 0.0 | 0.00 | 0.03 | 0.03 | 64 | 1002.0 |
| 20260505163015 | 19 | 191 | 1.6 | 8.0 | 0.00 | 0.03 | 0.03 | 60 | 1002.0 |
| 20260505162514 | 19 | 196 | 0.0 | 0.0 | 0.00 | 0.03 | 0.03 | 59 | 1001.8 |
| 20260505162014 | 20 | 205 | 3.2 | 11.3 | 0.00 | 0.03 | 0.03 | 58 | 1001.8 |
| 20260505161514 | 20 | 265 | 1.6 | 6.4 | 0.00 | 0.03 | 0.03 | 57 | 1001.8 |
| 20260505161013 | 20 | 195 | 4.8 | 8.0 | 0.00 | 0.03 | 0.03 | 56 | 1001.8 |
| 20260505160512 | 20 | 219 | 6.4 | 19.3 | 0.00 | 0.03 | 0.03 | 56 | 1001.9 |
| 20260505153012 | 20 | 252 | 4.8 | 17.7 | 0.00 | 0.03 | 0.03 | 58 | 1002.2 |
| 20260505152511 | 20 | 234 | 4.8 | 19.3 | 0.00 | 0.03 | 0.03 | 58 | 1002.2 |
| 20260505152017 | 20 | 225 | 6.4 | 24.1 | 0.00 | 0.03 | 0.03 | 58 | 1002.3 |
| 20260505151516 | 20 | 174 | 0.0 | 3.2 | 0.00 | 0.03 | 0.03 | 57 | 1002.1 |
| 20260505151016 | 20 | 196 | 12.9 | 19.3 | 0.00 | 0.03 | 0.03 | 56 | 1002.0 |
| 20260505150515 | 20 | 209 | 9.7 | 16.1 | 0.00 | 0.03 | 0.03 | 58 | 1002.1 |
| 20260505140512 | 18 | 235 | 0.0 | 4.8 | 0.00 | 0.03 | 0.03 | 65 | 1002.6 |
| 20260505125012 | 16 | 165 | 0.0 | 3.2 | 0.00 | 0.03 | 0.03 | 72 | 1003.1 |
| 20260505124512 | 16 | 186 | 12.9 | 22.5 | 0.00 | 0.03 | 0.03 | 72 | 1003.0 |
| 20260505124011 | 15 | 175 | 1.6 | 9.7 | 0.00 | 0.03 | 0.03 | 73 | 1003.0 |
| 20260505123517 | 15 | 200 | 0.0 | 3.2 | 0.00 | 0.03 | 0.03 | 74 | 1003.1 |
| 20260505122515 | 15 | 165 | 0.0 | 8.0 | 0.00 | 0.03 | 0.03 | 75 | 1003.1 |
| 20260505121512 | 15 | 196 | 3.2 | 17.7 | 0.00 | 0.03 | 0.03 | 76 | 1003.0 |
| 20260505121012 | 15 | 208 | 4.8 | 16.1 | 0.00 | 0.03 | 0.03 | 77 | 1003.1 |
| 20260505120015 | 15 | 166 | 9.7 | 17.7 | 0.00 | 0.03 | 0.03 | 77 | 1003.2 |
| 20260505115017 | 14 | 212 | 3.2 | 20.9 | 0.00 | 0.03 | 0.03 | 78 | 1003.2 |
| 20260505114517 | 14 | 180 | 8.0 | 14.5 | 0.00 | 0.03 | 0.03 | 77 | 1003.1 |
| 20260505114016 | 14 | 216 | 9.7 | 20.9 | 0.00 | 0.03 | 0.03 | 77 | 1002.9 |
| 20260505113013 | 13 | 184 | 6.4 | 17.7 | 0.00 | 0.03 | 0.03 | 76 | 1003.2 |
| 20260505112513 | 13 | 178 | 0.0 | 0.0 | 0.00 | 0.03 | 0.03 | 76 | 1003.2 |
| 20260505112012 | 13 | 207 | 0.0 | 1.6 | 0.00 | 0.03 | 0.03 | 76 | 1003.1 |
| 20260505111511 | 13 | 201 | 0.0 | 0.0 | 0.00 | 0.03 | 0.03 | 76 | 1003.0 |
| 20260505111011 | 13 | 180 | 0.0 | 0.0 | 0.00 | 0.03 | 0.03 | 76 | 1002.8 |
| 20260505110516 | 13 | 190 | 8.0 | 16.1 | 0.00 | 0.03 | 0.03 | 76 | 1002.9 |
| 20260505101513 | 13 | 185 | 1.6 | 4.8 | 0.00 | 0.03 | 0.03 | 76 | 1002.8 |
| 20260505101012 | 13 | 150 | 3.2 | 9.7 | 0.00 | 0.03 | 0.03 | 76 | 1002.8 |
| 20260505100512 | 13 | 182 | 6.4 | 17.7 | 0.00 | 0.03 | 0.03 | 76 | 1002.8 |
| 20260505100017 | 13 | 196 | 1.6 | 22.5 | 0.00 | 0.03 | 0.03 | 75 | 1002.8 |
| 20260505095516 | 13 | 194 | 0.0 | 14.5 | 0.00 | 0.03 | 0.03 | 75 | 1002.8 |
| 20260505094513 | 13 | 173 | 0.0 | 0.0 | 0.00 | 0.03 | 0.03 | 75 | 1002.8 |
| 20260505094013 | 13 | 189 | 4.8 | 16.1 | 0.00 | 0.03 | 0.03 | 75 | 1002.8 |
| 20260505093512 | 13 | 178 | 0.0 | 1.6 | 0.00 | 0.03 | 0.03 | 76 | 1002.8 |
| 20260505093011 | 13 | 175 | 0.0 | 3.2 | 0.00 | 0.03 | 0.03 | 75 | 1002.9 |
| 20260505092015 | 13 | 194 | 6.4 | 17.7 | 0.00 | 0.03 | 0.03 | 75 | 1002.9 |
| 20260505091515 | 13 | 190 | 1.6 | 6.4 | 0.00 | 0.03 | 0.03 | 75 | 1003.0 |
| 20260505091014 | 13 | 180 | 0.0 | 3.2 | 0.00 | 0.03 | 0.03 | 75 | 1003.1 |
| 20260505090513 | 13 | 166 | 0.0 | 4.8 | 0.00 | 0.03 | 0.03 | 74 | 1003.1 |
| 20260505090013 | 13 | 190 | 0.0 | 3.2 | 0.00 | 0.03 | 0.03 | 74 | 1003.2 |
| 20260505085512 | 12 | 182 | 0.0 | 0.0 | 0.00 | 0.03 | 0.03 | 74 | 1003.3 |
| 20260505085017 | 12 | 173 | 0.0 | 9.7 | 0.00 | 0.03 | 0.03 | 74 | 1003.3 |
| 20260505084516 | 12 | 190 | 6.4 | 9.7 | 0.00 | 0.03 | 0.03 | 75 | 1003.3 |
| 20260505084016 | 12 | 178 | 0.0 | 3.2 | 0.00 | 0.03 | 0.03 | 76 | 1003.3 |
| 20260505083515 | 12 | 183 | 1.6 | 4.8 | 0.00 | 0.03 | 0.03 | 75 | 1003.4 |
| 20260505083014 | 13 | 181 | 3.2 | 12.9 | 0.00 | 0.03 | 0.03 | 74 | 1003.5 |
| 20260505082514 | 13 | 194 | 0.0 | 0.0 | 0.00 | 0.00 | 0.00 | 73 | 1003.5 |
| 20260505082013 | 13 | 182 | 0.0 | 0.0 | 0.00 | 0.00 | 0.00 | 67 | 1003.9 |
| 20260505081513 | 13 | 192 | 0.0 | 1.6 | 0.00 | 0.00 | 0.00 | 65 | 1003.8 |
| 20260505080516 | 13 | 186 | 0.0 | 0.0 | 0.00 | 0.00 | 0.00 | 65 | 1003.2 |
| 20260505080016 | 13 | 192 | 0.0 | 0.0 | 0.00 | 0.00 | 0.00 | 65 | 1003.1 |
| 20260505075515 | 13 | 180 | 0.0 | 0.0 | 0.00 | 0.00 | 0.00 | 65 | 1003.2 |
| 20260505075013 | 13 | 189 | 0.0 | 0.0 | 0.00 | 0.00 | 0.00 | 64 | 1003.2 |
| 20260505073515 | 13 | 169 | 0.0 | 0.0 | 0.00 | 0.00 | 0.00 | 64 | 1003.2 |
| 20260505073015 | 13 | 183 | 1.6 | 4.8 | 0.00 | 0.00 | 0.00 | 64 | 1003.2 |
| 20260505072514 | 13 | 165 | 0.0 | 0.0 | 0.00 | 0.00 | 0.00 | 64 | 1003.2 |
| 20260505072013 | 13 | 189 | 0.0 | 1.6 | 0.00 | 0.00 | 0.00 | 63 | 1003.1 |
| 20260505071512 | 13 | 186 | 0.0 | 0.0 | 0.00 | 0.00 | 0.00 | 64 | 1003.1 |
| 20260505071012 | 13 | 186 | 1.6 | 8.0 | 0.00 | 0.00 | 0.00 | 64 | 1003.1 |
| 20260505070517 | 13 | 171 | 0.0 | 1.6 | 0.00 | 0.00 | 0.00 | 64 | 1003.1 |
| 20260505070016 | 13 | 196 | 0.0 | 0.0 | 0.00 | 0.00 | 0.00 | 64 | 1003.2 |
| 20260505065515 | 13 | 186 | 0.0 | 0.0 | 0.00 | 0.03 | 0.00 | 64 | 1003.2 |
| 20260505065013 | 13 | 183 | 0.0 | 0.0 | 0.00 | 0.05 | 0.00 | 63 | 1003.2 |
| 20260505064011 | 13 | 192 | 0.0 | 0.0 | 0.00 | 0.08 | 0.00 | 63 | 1003.3 |
| 20260505063517 | 13 | 200 | 0.0 | 1.6 | 0.00 | 0.08 | 0.00 | 63 | 1003.4 |
| 20260505063016 | 13 | 194 | 1.6 | 6.4 | 0.00 | 0.08 | 0.00 | 63 | 1003.4 |
| 20260505062516 | 13 | 180 | 0.0 | 0.0 | 0.00 | 0.08 | 0.00 | 63 | 1003.4 |
| 20260505062015 | 13 | 180 | 3.2 | 9.7 | 0.00 | 0.08 | 0.00 | 63 | 1003.5 |
| 20260505061514 | 13 | 188 | 0.0 | 0.0 | 0.00 | 0.08 | 0.00 | 62 | 1003.5 |
| 20260505060512 | 13 | 182 | 0.0 | 0.0 | 0.00 | 0.08 | 0.00 | 62 | 1003.6 |
| 20260505060017 | 13 | 200 | 3.2 | 14.5 | 0.00 | 0.08 | 0.00 | 62 | 1003.5 |
| 20260505055516 | 13 | 200 | 0.0 | 1.6 | 0.00 | 0.08 | 0.00 | 62 | 1003.6 |
| 20260505055014 | 13 | 177 | 1.6 | 8.0 | 0.00 | 0.08 | 0.00 | 61 | 1003.6 |
| 20260505054012 | 13 | 183 | 0.0 | 0.0 | 0.00 | 0.08 | 0.00 | 61 | 1003.6 |
| 20260505053512 | 13 | 187 | 1.6 | 14.5 | 0.00 | 0.08 | 0.00 | 60 | 1003.5 |
| 20260505053011 | 13 | 176 | 0.0 | 1.6 | 0.00 | 0.08 | 0.00 | 60 | 1003.6 |
| 20260505052015 | 13 | 180 | 1.6 | 4.8 | 0.00 | 0.08 | 0.00 | 59 | 1003.7 |
| 20260505051514 | 13 | 178 | 0.0 | 0.0 | 0.00 | 0.08 | 0.00 | 58 | 1003.7 |
| 20260505051013 | 14 | 159 | 0.0 | 0.0 | 0.00 | 0.08 | 0.00 | 58 | 1003.7 |
| 20260505050513 | 14 | 187 | 0.0 | 0.0 | 0.00 | 0.08 | 0.00 | 59 | 1003.8 |
| 20260505041510 | 13 | 188 | 0.0 | 0.0 | 0.00 | 0.10 | 0.00 | 59 | 1003.8 |
| 20260505041016 | 13 | 186 | 6.4 | 14.5 | 0.00 | 0.10 | 0.00 | 60 | 1003.8 |
| 20260505040515 | 13 | 194 | 1.6 | 11.3 | 0.00 | 0.10 | 0.00 | 61 | 1003.8 |
| 20260505040015 | 13 | 184 | 0.0 | 0.0 | 0.00 | 0.10 | 0.00 | 63 | 1003.8 |
| 20260505035514 | 12 | 170 | 3.2 | 12.9 | 0.00 | 0.10 | 0.10 | 65 | 1004.0 |
| 20260505035012 | 11 | 184 | 0.0 | 0.0 | 0.00 | 0.10 | 0.10 | 68 | 1004.0 |
| 20260505034512 | 11 | 186 | 0.0 | 1.6 | 0.00 | 0.10 | 0.10 | 70 | 1004.0 |
| 20260505034017 | 11 | 189 | 0.0 | 1.6 | 0.00 | 0.10 | 0.10 | 72 | 1004.0 |
| 20260505033517 | 11 | 187 | 0.0 | 0.0 | 0.00 | 0.10 | 0.10 | 73 | 1004.0 |
| 20260505033016 | 10 | 188 | 0.0 | 0.0 | 0.00 | 0.10 | 0.10 | 73 | 1004.1 |
| 20260505032515 | 10 | 161 | 0.0 | 0.0 | 0.00 | 0.10 | 0.10 | 74 | 1004.1 |
| 20260505032014 | 10 | 165 | 0.0 | 0.0 | 0.00 | 0.13 | 0.10 | 75 | 1004.2 |
| 20260505031012 | 10 | 182 | 0.0 | 0.0 | 0.00 | 0.13 | 0.10 | 76 | 1004.3 |
| 20260505030511 | 10 | 182 | 0.0 | 0.0 | 0.00 | 0.13 | 0.10 | 77 | 1004.3 |
| 20260505025515 | 10 | 183 | 0.0 | 0.0 | 0.00 | 0.13 | 0.10 | 77 | 1004.3 |
| 20260505025013 | 11 | 183 | 0.0 | 0.0 | 0.00 | 0.13 | 0.10 | 77 | 1004.3 |
| 20260505024512 | 11 | 183 | 0.0 | 0.0 | 0.00 | 0.13 | 0.10 | 77 | 1004.4 |
| 20260505024011 | 11 | 183 | 0.0 | 0.0 | 0.00 | 0.13 | 0.10 | 76 | 1004.4 |
| 20260505023015 | 11 | 183 | 0.0 | 0.0 | 0.00 | 0.13 | 0.10 | 74 | 1004.6 |
| 20260505022514 | 11 | 183 | 0.0 | 0.0 | 0.00 | 0.13 | 0.10 | 74 | 1004.5 |
| 20260505022013 | 12 | 183 | 0.0 | 0.0 | 0.00 | 0.13 | 0.10 | 72 | 1004.6 |
| 20260505021011 | 12 | 183 | 0.0 | 0.0 | 0.00 | 0.13 | 0.10 | 68 | 1004.6 |
| 20260505020517 | 12 | 184 | 0.0 | 0.0 | 0.00 | 0.13 | 0.10 | 67 | 1004.8 |
| 20260505020016 | 12 | 184 | 0.0 | 0.0 | 0.00 | 0.13 | 0.10 | 67 | 1004.7 |
| 20260505015515 | 12 | 184 | 0.0 | 0.0 | 0.00 | 0.13 | 0.10 | 67 | 1004.8 |
| 20260505015015 | 12 | 184 | 0.0 | 0.0 | 0.00 | 0.13 | 0.10 | 67 | 1004.8 |
| 20260505014513 | 12 | 184 | 0.0 | 0.0 | 0.00 | 0.13 | 0.10 | 67 | 1004.8 |